Location: Mexico
(19.4000°N, 99.1500°W)
Time: 00:48:08
(UTC-06:00)

ISS - Pass Details

Date: 24 July 2017
Orbit: 400 x 408 km, 51.6° (Epoch: 21 July)

Event Time Altitude Azimuth Distance (km) Brightness Sun altitude
Rises 20:32:53 0° 261° (W) 2,299 0.9 -17.3°
Reaches altitude 10° 20:36:42 10° 307° (NW) 1,441 0.2 -18.1°
Maximum altitude 20:37:10 10° 316° (NW) 1,428 0.1 -18.2°
Drops below altitude 10° 20:37:38 10° 324° (NW) 1,441 -0.1 -18.3°
Sets 20:41:28 0° 10° (N) 2,300 0.3 -19.1°
